Location: Jackson
(42.2460°N, 84.4010°W)
Time: 10:36:19
(UTC-04:00)

Injun/Solrad 3 - Pass Details

Date: 15 February 2026
Orbit: 871 x 985 km, 66.8° (Epoch: 16 March)

Event Time Altitude Azimuth Distance (km) Brightness Sun altitude
Rises 21:25:29 0° 328° (NNW) 3,576 11.6 -36.4°
Reaches altitude 10° 21:27:59 10° 327° (NNW) 2,646 10.8 -36.9°
Enters shadow 21:31:23 35° 322° (NW) 1,476 9.2 -37.4°
